Showing default

HXMT, 42758

Orbit data source: Space-Track

HXMT, 42758 is a payload satellite owned by CNSA (CN) in LEO that was launched on Thu, 15 Jun 2017 UTC via a CHANG ZHENG 4B launch vehicle from the Jiuquan Satellite Launch Center, China (JSC). Payload-class satellites include a variety of spacecraft equipped with specific instruments for various scientific and technological missions. These include communications satellites like Starlink; space stations such as the ISS; scientific satellites like the Hubble; Earth observation satellites from companies like Planet Labs, Umbra, and HawkEye 360; GPS; miniature CubeSats for education and research; and military/defense satellites.

Loading next visibility...
Identifier
42758, 2017-034A
Orbit
LEO
Country
Flag of CNCN / PRC
Related business
Manufacturer
CAST
Mission
Operational Civil Astronomy
Bus & Motor
ZY, Unknown motor
Mass
3,000 kg wet, ~2,900 kg dry
Launch date (UTC)
2017-06-15 (8 years ago)
Launch vehicle
CHANG ZHENG 4B
Launch site
Jiuquan Satellite Launch Center, China (JSC)
Object type
Payload
Rocket body
Debris
Shape & HBR
Box + 2 Pan, 5.0 m
Radar Cross Section
10.304 m², Large (>1 m²)

Expand to show TLE details & history
Last TLE update: 7 hours ago

TLE from 7 hours ago
0 HXMT
1 42758U 17034A   25297.76704043  .00008838  00000-0  46520-3 0  9994
2 42758  43.0149  51.2287 0031816  96.4216 264.0256 15.15438441461902
Epoch: 2025-10-24T18:24Z
TLE epoch observation values (Epoch: 2025-10-24T18:24:32.293Z)
Latitude
0.00001°
Longitude
101.68693°
Altitude
521.779 km
Speed
7.603 km/s
True Right ascension
03h 24m 54s
True Declination
0° 00' 00"
Sunlit
Object was in full shadow at epoch
Visualization orbit readout
Latitude
Unknown
Longitude
Unknown
Altitude
Unknown
Speed
Unknown
Apparent Right ascension
Unknown
Apparent Declination
Unknown
Sunlit
N/A
Visualization observer readout
Local Sidereal Time
20:22:18
Azimuth
Unknown
Elevation
Unknown
Doppler factor
Unknown
Orbital elements
Apogee altitude
543.532 km
Perigee altitude
499.628 km
Semi-major axis
6,899.717 km
Eccentricity
0.00318
Inclination
43.0149°
RAAN
51.2287°
Arg. of periapsis
96.4216°
True anomaly
263.66315°
Mean anomaly
264.0256°
Eccentric anomaly
263.84436°
Mean motion
3.78701 °/min
Orbital period
95.06 mins
BSTAR
0.0004652
Loading maneuver chart data...
Computing Atmospheric mass density...
Loading historical data...
Loading historical data...
Loading historical data...
Loading historical data...
Loading historical data...
Loading historical data...
Loading historical data...

Documentation

Showing up to 5 results
|